Time,TemperatureF,DewpointF,PressureIn,WindDirection,WindDirectionDegrees,WindSpeedMPH,WindSpeedGustMPH,Humidity,HourlyPrecipIn,Conditions,Clouds,dailyrainin,SolarRadiationWatts/m^2,SoftwareType,DateUTC
2013-04-21 00:00:00,44.3,27.8,30.13,NW,306,3.0,4.0,52,0.00,,,0.00,0,Wunderground v.1.15,2013-04-21 04:00:00,
2013-04-21 00:01:00,44.2,27.2,30.13,NW,317,3.0,4.0,51,0.00,,,0.00,0,Wunderground v.1.15,2013-04-21 04:01:00,
2013-04-21 00:03:00,44.1,27.1,30.13,NNW,330,3.0,4.0,51,0.00,,,0.00,0,Wunderground v.1.15,2013-04-21 04:03:00,
2013-04-21 00:04:00,44.1,27.1,30.13,WNW,290,3.0,4.0,51,0.00,,,0.00,0,Wunderground v.1.15,2013-04-21 04:04:00,
2013-04-21 00:05:00,44.1,27.6,30.13,NW,315,3.0,4.0,52,0.00,,,0.00,0,Wunderground v.1.15,2013-04-21 04:05:00,
2013-04-21 00:10:00,43.8,27.3,30.14,West,265,2.0,6.0,52,0.00,,,0.00,0,Wunderground v.1.15,2013-04-21 04:10:00,
2013-04-21 00:15:00,43.6,26.6,30.14,WNW,293,3.0,9.0,51,0.00,,,0.00,0,Wunderground v.1.15,2013-04-21 04:15:00,
2013-04-21 00:17:00,43.5,27.0,30.14,WNW,286,3.0,9.0,52,0.00,,,0.00,0,Wunderground v.1.15,2013-04-21 04:17:00,
2013-04-21 00:22:00,43.3,26.8,30.14,WNW,294,3.0,7.0,52,0.00,,,0.00,0,Wunderground v.1.15,2013-04-21 04:22:00,
2013-04-21 00:28:00,43.1,27.1,30.14,NW,317,3.0,7.0,53,0.00,,,0.00,0,Wunderground v.1.15,2013-04-21 04:28:00,
2013-04-21 00:33:00,42.8,25.9,30.15,NW,312,3.0,8.0,51,0.00,,,0.00,0,Wunderground v.1.15,2013-04-21 04:33:00,
2013-04-21 00:39:00,42.7,25.8,30.15,NNW,330,3.0,8.0,51,0.00,,,0.00,0,Wunderground v.1.15,2013-04-21 04:39:00,
2013-04-21 00:45:00,42.6,25.2,30.16,WNW,292,3.0,12.0,50,0.00,,,0.00,0,Wunderground v.1.15,2013-04-21 04:45:00,
2013-04-21 00:51:00,42.4,25.1,30.17,WNW,285,3.0,4.0,50,0.00,,,0.00,0,Wunderground v.1.15,2013-04-21 04:51:00,
2013-04-21 00:56:00,42.3,24.5,30.16,WNW,291,3.0,8.0,49,0.00,,,0.00,0,Wunderground v.1.15,2013-04-21 04:56:00,
2013-04-21 01:01:00,42.2,24.4,30.17,WNW,294,3.0,3.0,49,0.00,,,0.00,0,Wunderground v.1.15,2013-04-21 05:01:00,
2013-04-21 01:06:00,42.0,24.2,30.17,WNW,291,2.0,3.0,49,0.00,,,0.00,0,Wunderground v.1.15,2013-04-21 05:06:00,
2013-04-21 01:11:00,41.8,24.5,30.18,West,278,2.0,3.0,50,0.00,,,0.00,0,Wunderground v.1.15,2013-04-21 05:11:00,
2013-04-21 01:17:00,41.6,23.8,30.18,NW,306,2.0,7.0,49,0.00,,,0.00,0,Wunderground v.1.15,2013-04-21 05:17:00,
2013-04-21 01:23:00,41.5,23.7,30.18,NNW,339,3.0,6.0,49,0.00,,,0.00,0,Wunderground v.1.15,2013-04-21 05:23:00,
2013-04-21 01:29:00,41.3,24.0,30.19,WNW,288,3.0,8.0,50,0.00,,,0.00,0,Wunderground v.1.15,2013-04-21 05:29:00,
2013-04-21 01:34:00,41.2,23.9,30.19,NW,326,3.0,4.0,50,0.00,,,0.00,0,Wunderground v.1.15,2013-04-21 05:34:00,
2013-04-21 01:39:00,41.1,23.9,30.19,WNW,288,2.0,4.0,50,0.00,,,0.00,0,Wunderground v.1.15,2013-04-21 05:39:00,
2013-04-21 01:45:00,40.9,24.1,30.19,WNW,292,1.0,2.0,51,0.00,,,0.00,0,Wunderground v.1.15,2013-04-21 05:45:00,
2013-04-21 01:51:00,40.6,23.9,30.19,WNW,288,1.0,3.0,51,0.00,,,0.00,0,Wunderground v.1.15,2013-04-21 05:51:00,
2013-04-21 01:56:00,40.4,24.1,30.20,NNW,329,1.0,3.0,52,0.00,,,0.00,0,Wunderground v.1.15,2013-04-21 05:56:00,
2013-04-21 02:02:00,40.3,24.1,30.20,NNW,338,0.0,2.0,52,0.00,,,0.00,0,Wunderground v.1.15,2013-04-21 06:02:00,
2013-04-21 02:07:00,40.0,23.8,30.20,West,271,1.0,2.0,52,0.00,,,0.00,0,Wunderground v.1.15,2013-04-21 06:07:00,
2013-04-21 02:12:00,39.8,24.0,30.21,NW,310,1.0,2.0,53,0.00,,,0.00,0,Wunderground v.1.15,2013-04-21 06:12:00,
2013-04-21 02:18:00,39.6,23.9,30.20,WSW,240,1.0,4.0,53,0.00,,,0.00,0,Wunderground v.1.15,2013-04-21 06:18:00,
2013-04-21 02:23:00,39.5,23.8,30.21,NW,310,2.0,2.0,53,0.00,,,0.00,0,Wunderground v.1.15,2013-04-21 06:23:00,
2013-04-21 02:29:00,39.4,23.7,30.21,WNW,284,2.0,6.0,53,0.00,,,0.00,0,Wunderground v.1.15,2013-04-21 06:29:00,
2013-04-21 02:34:00,39.3,24.0,30.21,NW,307,2.0,5.0,54,0.00,,,0.00,0,Wunderground v.1.15,2013-04-21 06:34:00,
2013-04-21 02:39:00,39.1,23.8,30.22,West,280,2.0,5.0,54,0.00,,,0.00,0,Wunderground v.1.15,2013-04-21 06:39:00,
2013-04-21 02:45:00,39.0,23.7,30.22,NW,310,2.0,5.0,54,0.00,,,0.00,0,Wunderground v.1.15,2013-04-21 06:45:00,
2013-04-21 02:50:00,38.8,24.0,30.22,NNW,344,2.0,3.0,55,0.00,,,0.00,0,Wunderground v.1.15,2013-04-21 06:50:00,
2013-04-21 02:56:00,38.6,24.2,30.23,NW,323,2.0,7.0,56,0.00,,,0.00,0,Wunderground v.1.15,2013-04-21 06:56:00,
2013-04-21 03:01:00,38.4,24.5,30.23,North,355,3.0,4.0,57,0.00,,,0.00,0,Wunderground v.1.15,2013-04-21 07:01:00,
2013-04-21 03:06:00,38.3,24.8,30.23,NW,317,4.0,7.0,58,0.00,,,0.00,0,Wunderground v.1.15,2013-04-21 07:06:00,
2013-04-21 03:11:00,38.2,25.1,30.24,NNW,327,4.0,9.0,59,0.00,,,0.00,0,Wunderground v.1.15,2013-04-21 07:11:00,
2013-04-21 03:16:00,38.0,25.3,30.24,North,355,3.0,9.0,60,0.00,,,0.00,0,Wunderground v.1.15,2013-04-21 07:16:00,
2013-04-21 03:21:00,37.9,25.6,30.24,WNW,295,2.0,3.0,61,0.00,,,0.00,0,Wunderground v.1.15,2013-04-21 07:21:00,
2013-04-21 03:26:00,37.7,25.8,30.24,North,349,2.0,3.0,62,0.00,,,0.00,0,Wunderground v.1.15,2013-04-21 07:26:00,
2013-04-21 03:32:00,37.4,25.9,30.25,NW,306,1.0,4.0,63,0.00,,,0.00,0,Wunderground v.1.15,2013-04-21 07:32:00,
2013-04-21 03:37:00,37.3,26.2,30.25,NNW,338,1.0,4.0,64,0.00,,,0.00,0,Wunderground v.1.15,2013-04-21 07:37:00,
2013-04-21 03:42:00,37.1,26.0,30.25,NW,312,1.0,5.0,64,0.00,,,0.00,0,Wunderground v.1.15,2013-04-21 07:42:00,
2013-04-21 03:47:00,37.0,25.9,30.26,NNW,334,1.0,5.0,64,0.00,,,0.00,0,Wunderground v.1.15,2013-04-21 07:47:00,
2013-04-21 03:52:00,36.9,26.2,30.26,NNW,336,2.0,2.0,65,0.00,,,0.00,0,Wunderground v.1.15,2013-04-21 07:52:00,
2013-04-21 03:58:00,36.8,26.1,30.26,NW,318,2.0,3.0,65,0.00,,,0.00,0,Wunderground v.1.15,2013-04-21 07:58:00,
2013-04-21 04:04:00,36.8,25.0,30.26,NNW,328,3.0,6.0,62,0.00,,,0.00,0,Wunderground v.1.15,2013-04-21 08:04:00,
2013-04-21 04:10:00,36.9,24.7,30.27,WNW,286,4.0,4.0,61,0.00,,,0.00,0,Wunderground v.1.15,2013-04-21 08:10:00,
2013-04-21 04:15:00,36.8,24.2,30.27,NW,304,3.0,6.0,60,0.00,,,0.00,0,Wunderground v.1.15,2013-04-21 08:15:00,
2013-04-21 04:20:00,36.8,23.8,30.27,NW,324,2.0,2.0,59,0.00,,,0.00,0,Wunderground v.1.15,2013-04-21 08:20:00,
2013-04-21 04:25:00,36.8,23.0,30.27,NW,319,3.0,10.0,57,0.00,,,0.00,0,Wunderground v.1.15,2013-04-21 08:25:00,
2013-04-21 04:31:00,36.7,22.9,30.28,West,267,3.0,6.0,57,0.00,,,0.00,0,Wunderground v.1.15,2013-04-21 08:31:00,
2013-04-21 04:36:00,36.6,22.8,30.28,NNW,333,3.0,6.0,57,0.00,,,0.00,0,Wunderground v.1.15,2013-04-21 08:36:00,
2013-04-21 04:41:00,36.6,22.8,30.28,NW,321,4.0,5.0,57,0.00,,,0.00,0,Wunderground v.1.15,2013-04-21 08:41:00,
2013-04-21 04:46:00,36.6,22.8,30.29,West,264,3.0,6.0,57,0.00,,,0.00,0,Wunderground v.1.15,2013-04-21 08:46:00,
2013-04-21 04:51:00,36.5,22.7,30.29,NW,325,3.0,4.0,57,0.00,,,0.00,0,Wunderground v.1.15,2013-04-21 08:51:00,
2013-04-21 04:57:00,36.4,23.0,30.29,NNW,341,3.0,4.0,58,0.00,,,0.00,0,Wunderground v.1.15,2013-04-21 08:57:00,
2013-04-21 05:02:00,36.2,22.8,30.30,North,5,2.0,3.0,58,0.00,,,0.00,0,Wunderground v.1.15,2013-04-21 09:02:00,
2013-04-21 05:08:00,36.2,23.2,30.30,West,271,3.0,3.0,59,0.00,,,0.00,0,Wunderground v.1.15,2013-04-21 09:08:00,
2013-04-21 05:13:00,36.1,23.1,30.31,NW,306,3.0,7.0,59,0.00,,,0.00,0,Wunderground v.1.15,2013-04-21 09:13:00,
2013-04-21 05:18:00,36.1,23.1,30.31,WNW,302,2.0,7.0,59,0.00,,,0.00,0,Wunderground v.1.15,2013-04-21 09:18:00,
2013-04-21 05:23:00,36.0,23.0,30.31,NW,308,2.0,4.0,59,0.00,,,0.00,0,Wunderground v.1.15,2013-04-21 09:23:00,
2013-04-21 05:28:00,35.9,23.4,30.32,WNW,299,2.0,4.0,60,0.00,,,0.00,0,Wunderground v.1.15,2013-04-21 09:28:00,
2013-04-21 05:33:00,35.8,23.3,30.32,NW,324,2.0,5.0,60,0.00,,,0.00,0,Wunderground v.1.15,2013-04-21 09:33:00,
2013-04-21 05:38:00,35.6,23.5,30.32,WNW,302,2.0,5.0,61,0.00,,,0.00,0,Wunderground v.1.15,2013-04-21 09:38:00,
2013-04-21 05:43:00,35.5,23.8,30.32,SW,226,2.0,2.0,62,0.00,,,0.00,0,Wunderground v.1.15,2013-04-21 09:43:00,
2013-04-21 05:48:00,35.3,23.6,30.33,WNW,294,1.0,7.0,62,0.00,,,0.00,5,Wunderground v.1.15,2013-04-21 09:48:00,
2013-04-21 05:53:00,35.3,23.2,30.33,NW,306,2.0,2.0,61,0.00,,,0.00,9,Wunderground v.1.15,2013-04-21 09:53:00,
2013-04-21 05:59:00,35.2,23.5,30.34,NW,311,2.0,2.0,62,0.00,,,0.00,12,Wunderground v.1.15,2013-04-21 09:59:00,
2013-04-21 06:04:00,35.1,23.8,30.35,NNW,347,1.0,2.0,63,0.00,,,0.00,14,Wunderground v.1.15,2013-04-21 10:04:00,
2013-04-21 06:10:00,35.0,23.7,30.35,WNW,298,1.0,1.0,63,0.00,,,0.00,18,Wunderground v.1.15,2013-04-21 10:10:00,
2013-04-21 06:15:00,35.0,23.7,30.36,WNW,301,1.0,2.0,63,0.00,,,0.00,19,Wunderground v.1.15,2013-04-21 10:15:00,
2013-04-21 06:20:00,35.0,23.7,30.36,WNW,288,2.0,2.0,63,0.00,,,0.00,21,Wunderground v.1.15,2013-04-21 10:20:00,
2013-04-21 06:25:00,35.0,23.7,30.37,West,260,2.0,5.0,63,0.00,,,0.00,44,Wunderground v.1.15,2013-04-21 10:25:00,
2013-04-21 06:30:00,35.1,23.8,30.38,WNW,288,1.0,1.0,63,0.00,,,0.00,58,Wunderground v.1.15,2013-04-21 10:30:00,
2013-04-21 06:36:00,35.2,23.9,30.38,North,350,0.0,2.0,63,0.00,,,0.00,53,Wunderground v.1.15,2013-04-21 10:36:00,
2013-04-21 06:41:00,35.3,24.0,30.38,West,273,1.0,3.0,63,0.00,,,0.00,47,Wunderground v.1.15,2013-04-21 10:41:00,
2013-04-21 06:47:00,35.6,24.2,30.39,NW,322,2.0,3.0,63,0.00,,,0.00,37,Wunderground v.1.15,2013-04-21 10:47:00,
2013-04-21 06:52:00,35.8,24.0,30.39,NNE,12,2.0,10.0,62,0.00,,,0.00,46,Wunderground v.1.15,2013-04-21 10:52:00,
2013-04-21 06:57:00,36.0,23.8,30.39,West,265,3.0,10.0,61,0.00,,,0.00,40,Wunderground v.1.15,2013-04-21 10:57:00,
2013-04-21 07:02:00,36.2,24.0,30.40,WNW,300,4.0,8.0,61,0.00,,,0.00,54,Wunderground v.1.15,2013-04-21 11:02:00,
2013-04-21 07:07:00,36.3,24.1,30.40,WNW,282,3.0,8.0,61,0.00,,,0.00,77,Wunderground v.1.15,2013-04-21 11:07:00,
2013-04-21 07:12:00,36.5,23.9,30.40,WNW,292,2.0,5.0,60,0.00,,,0.00,118,Wunderground v.1.15,2013-04-21 11:12:00,
2013-04-21 07:17:00,36.7,23.7,30.41,NW,311,3.0,6.0,59,0.00,,,0.00,193,Wunderground v.1.15,2013-04-21 11:17:00,
2013-04-21 07:23:00,37.0,23.6,30.41,NW,319,4.0,4.0,58,0.00,,,0.00,246,Wunderground v.1.15,2013-04-21 11:23:00,
2013-04-21 07:28:00,37.2,23.8,30.41,NE,44,3.0,5.0,58,0.00,,,0.00,262,Wunderground v.1.15,2013-04-21 11:28:00,
2013-04-21 07:34:00,37.5,23.6,30.41,West,276,4.0,6.0,57,0.00,,,0.00,279,Wunderground v.1.15,2013-04-21 11:34:00,
2013-04-21 07:39:00,37.7,23.0,30.41,West,270,4.0,12.0,55,0.00,,,0.00,295,Wunderground v.1.15,2013-04-21 11:39:00,
2013-04-21 07:45:00,37.8,23.1,30.42,WNW,296,6.0,11.0,55,0.00,,,0.00,320,Wunderground v.1.15,2013-04-21 11:45:00,
2013-04-21 07:50:00,38.0,23.3,30.42,NW,307,5.0,8.0,55,0.00,,,0.00,332,Wunderground v.1.15,2013-04-21 11:50:00,
2013-04-21 07:55:00,38.2,23.4,30.42,WSW,248,5.0,11.0,55,0.00,,,0.00,348,Wunderground v.1.15,2013-04-21 11:55:00,
2013-04-21 08:01:00,38.4,23.6,30.43,West,281,5.0,5.0,55,0.00,,,0.00,364,Wunderground v.1.15,2013-04-21 12:01:00,
2013-04-21 08:07:00,38.9,24.1,30.43,WSW,246,3.0,5.0,55,0.00,,,0.00,383,Wunderground v.1.15,2013-04-21 12:07:00,
2013-04-21 08:12:00,39.1,23.4,30.43,West,279,4.0,8.0,53,0.00,,,0.00,403,Wunderground v.1.15,2013-04-21 12:12:00,
2013-04-21 08:17:00,39.1,23.4,30.43,North,355,5.0,8.0,53,0.00,,,0.00,420,Wunderground v.1.15,2013-04-21 12:17:00,
2013-04-21 08:23:00,39.3,23.6,30.44,WSW,251,5.0,8.0,53,0.00,,,0.00,446,Wunderground v.1.15,2013-04-21 12:23:00,
2013-04-21 08:28:00,39.3,23.6,30.44,WNW,286,4.0,8.0,53,0.00,,,0.00,452,Wunderground v.1.15,2013-04-21 12:28:00,
2013-04-21 08:34:00,39.4,24.1,30.44,West,273,5.0,8.0,54,0.00,,,0.00,475,Wunderground v.1.15,2013-04-21 12:34:00,
2013-04-21 08:39:00,39.7,24.0,30.44,NNW,338,5.0,8.0,53,0.00,,,0.00,490,Wunderground v.1.15,2013-04-21 12:39:00,
2013-04-21 08:44:00,39.9,24.1,30.44,NW,317,4.0,5.0,53,0.00,,,0.00,522,Wunderground v.1.15,2013-04-21 12:44:00,
2013-04-21 08:50:00,40.1,23.9,30.45,NNE,13,4.0,7.0,52,0.00,,,0.00,610,Wunderground v.1.15,2013-04-21 12:50:00,
2013-04-21 08:56:00,40.4,24.1,30.45,NW,312,4.0,8.0,52,0.00,,,0.00,234,Wunderground v.1.15,2013-04-21 12:56:00,
2013-04-21 09:01:00,40.1,23.9,30.45,NNW,347,4.0,5.0,52,0.00,,,0.00,740,Wunderground v.1.15,2013-04-21 13:01:00,
2013-04-21 09:06:00,40.3,24.1,30.45,NW,322,5.0,5.0,52,0.00,,,0.00,441,Wunderground v.1.15,2013-04-21 13:06:00,
2013-04-21 09:11:00,40.7,24.4,30.45,NW,307,4.0,4.0,52,0.00,,,0.00,304,Wunderground v.1.15,2013-04-21 13:11:00,
2013-04-21 09:16:00,40.7,24.4,30.46,WNW,294,3.0,5.0,52,0.00,,,0.00,255,Wunderground v.1.15,2013-04-21 13:16:00,
2013-04-21 09:22:00,40.3,24.1,30.46,NNW,331,4.0,8.0,52,0.00,,,0.00,262,Wunderground v.1.15,2013-04-21 13:22:00,
2013-04-21 09:27:00,40.3,24.5,30.46,West,265,5.0,8.0,53,0.00,,,0.00,765,Wunderground v.1.15,2013-04-21 13:27:00,
2013-04-21 09:32:00,40.7,24.9,30.46,SW,223,5.0,8.0,53,0.00,,,0.00,461,Wunderground v.1.15,2013-04-21 13:32:00,
2013-04-21 09:38:00,40.4,24.1,30.47,WNW,288,5.0,13.0,52,0.00,,,0.00,267,Wunderground v.1.15,2013-04-21 13:38:00,
2013-04-21 09:43:00,40.2,24.0,30.47,West,281,4.0,7.0,52,0.00,,,0.00,795,Wunderground v.1.15,2013-04-21 13:43:00,
2013-04-21 09:48:00,40.5,24.2,30.47,NW,315,4.0,7.0,52,0.00,,,0.00,705,Wunderground v.1.15,2013-04-21 13:48:00,
2013-04-21 09:54:00,41.3,24.5,30.47,WNW,296,4.0,5.0,51,0.00,,,0.00,803,Wunderground v.1.15,2013-04-21 13:54:00,
2013-04-21 09:59:00,41.4,23.6,30.47,NW,313,5.0,5.0,49,0.00,,,0.00,830,Wunderground v.1.15,2013-04-21 13:59:00,
2013-04-21 10:05:00,41.7,24.4,30.48,NNE,23,5.0,5.0,50,0.00,,,0.00,297,Wunderground v.1.15,2013-04-21 14:05:00,
2013-04-21 10:10:00,41.3,23.6,30.48,NNW,340,5.0,6.0,49,0.00,,,0.00,178,Wunderground v.1.15,2013-04-21 14:10:00,
2013-04-21 10:15:00,40.7,24.0,30.48,SW,215,5.0,9.0,51,0.00,,,0.00,722,Wunderground v.1.15,2013-04-21 14:15:00,
2013-04-21 10:20:00,41.1,24.3,30.48,West,276,5.0,5.0,51,0.00,,,0.00,744,Wunderground v.1.15,2013-04-21 14:20:00,
2013-04-21 10:26:00,41.6,22.8,30.48,WNW,294,5.0,7.0,47,0.00,,,0.00,789,Wunderground v.1.15,2013-04-21 14:26:00,
2013-04-21 10:31:00,41.6,22.3,30.48,NW,314,5.0,8.0,46,0.00,,,0.00,758,Wunderground v.1.15,2013-04-21 14:31:00,
2013-04-21 10:36:00,41.9,23.1,30.49,NW,311,5.0,8.0,47,0.00,,,0.00,765,Wunderground v.1.15,2013-04-21 14:36:00,
2013-04-21 10:42:00,42.5,24.2,30.49,WSW,253,4.0,5.0,48,0.00,,,0.00,766,Wunderground v.1.15,2013-04-21 14:42:00,
2013-04-21 10:47:00,43.3,24.4,30.48,West,273,4.0,6.0,47,0.00,,,0.00,777,Wunderground v.1.15,2013-04-21 14:47:00,
2013-04-21 10:52:00,43.7,23.2,30.48,NW,324,4.0,5.0,44,0.00,,,0.00,784,Wunderground v.1.15,2013-04-21 14:52:00,
2013-04-21 10:58:00,43.5,22.5,30.49,NNW,345,5.0,9.0,43,0.00,,,0.00,798,Wunderground v.1.15,2013-04-21 14:58:00,
2013-04-21 11:03:00,43.5,23.5,30.49,WNW,300,5.0,7.0,45,0.00,,,0.00,814,Wunderground v.1.15,2013-04-21 15:03:00,
2013-04-21 11:08:00,43.9,23.4,30.49,NW,307,5.0,8.0,44,0.00,,,0.00,816,Wunderground v.1.15,2013-04-21 15:08:00,
2013-04-21 11:14:00,44.3,23.7,30.49,NNW,344,5.0,8.0,44,0.00,,,0.00,849,Wunderground v.1.15,2013-04-21 15:14:00,
2013-04-21 11:19:00,44.4,23.3,30.49,West,262,5.0,8.0,43,0.00,,,0.00,842,Wunderground v.1.15,2013-04-21 15:19:00,
2013-04-21 11:24:00,43.9,22.8,30.49,NNW,330,5.0,11.0,43,0.00,,,0.00,826,Wunderground v.1.15,2013-04-21 15:24:00,
2013-04-21 11:30:00,44.5,24.5,30.49,West,269,5.0,5.0,45,0.00,,,0.00,840,Wunderground v.1.15,2013-04-21 15:30:00,
2013-04-21 11:36:00,44.7,25.2,30.49,SSW,211,4.0,6.0,46,0.00,,,0.00,888,Wunderground v.1.15,2013-04-21 15:36:00,
2013-04-21 11:41:00,45.1,23.9,30.50,NNW,348,5.0,8.0,43,0.00,,,0.00,907,Wunderground v.1.15,2013-04-21 15:41:00,
2013-04-21 11:46:00,45.1,24.5,30.50,SSE,157,5.0,8.0,44,0.00,,,0.00,926,Wunderground v.1.15,2013-04-21 15:46:00,
2013-04-21 11:51:00,45.5,24.8,30.50,NW,317,5.0,5.0,44,0.00,,,0.00,879,Wunderground v.1.15,2013-04-21 15:51:00,
2013-04-21 11:56:00,45.5,24.8,30.50,NNW,327,5.0,6.0,44,0.00,,,0.00,919,Wunderground v.1.15,2013-04-21 15:56:00,
2013-04-21 12:02:00,45.4,24.7,30.50,NW,307,5.0,7.0,44,0.00,,,0.00,863,Wunderground v.1.15,2013-04-21 16:02:00,
2013-04-21 12:07:00,45.4,23.6,30.50,WNW,293,5.0,8.0,42,0.00,,,0.00,865,Wunderground v.1.15,2013-04-21 16:07:00,
2013-04-21 12:12:00,45.2,23.4,30.50,NW,311,5.0,9.0,42,0.00,,,0.00,870,Wunderground v.1.15,2013-04-21 16:12:00,
2013-04-21 12:17:00,45.2,24.0,30.50,NNW,337,5.0,10.0,43,0.00,,,0.00,872,Wunderground v.1.15,2013-04-21 16:17:00,
2013-04-21 12:23:00,45.6,24.4,30.50,WNW,298,6.0,9.0,43,0.00,,,0.00,891,Wunderground v.1.15,2013-04-21 16:23:00,
2013-04-21 12:29:00,46.4,26.2,30.51,NNE,25,4.0,9.0,45,0.00,,,0.00,935,Wunderground v.1.15,2013-04-21 16:29:00,
2013-04-21 12:34:00,46.7,23.6,30.51,NNW,343,4.0,7.0,40,0.00,,,0.00,765,Wunderground v.1.15,2013-04-21 16:34:00,
2013-04-21 12:40:00,46.8,24.9,30.51,NW,323,4.0,5.0,42,0.00,,,0.00,884,Wunderground v.1.15,2013-04-21 16:40:00,
2013-04-21 12:45:00,47.4,25.4,30.51,NE,35,3.0,7.0,42,0.00,,,0.00,898,Wunderground v.1.15,2013-04-21 16:45:00,
2013-04-21 12:50:00,46.9,23.2,30.51,NE,49,4.0,4.0,39,0.00,,,0.00,877,Wunderground v.1.15,2013-04-21 16:50:00,
2013-04-21 12:55:00,46.7,24.8,30.51,West,281,5.0,10.0,42,0.00,,,0.00,889,Wunderground v.1.15,2013-04-21 16:55:00,
2013-04-21 13:00:00,46.8,23.7,30.51,WNW,288,4.0,7.0,40,0.00,,,0.00,875,Wunderground v.1.15,2013-04-21 17:00:00,
2013-04-21 13:05:00,47.3,24.8,30.51,West,281,5.0,7.0,41,0.00,,,0.00,865,Wunderground v.1.15,2013-04-21 17:05:00,
2013-04-21 13:10:00,46.8,23.7,30.51,West,276,5.0,5.0,40,0.00,,,0.00,865,Wunderground v.1.15,2013-04-21 17:10:00,
2013-04-21 13:16:00,46.7,22.4,30.52,North,5,6.0,9.0,38,0.00,,,0.00,886,Wunderground v.1.15,2013-04-21 17:16:00,
2013-04-21 13:22:00,47.1,23.4,30.52,WSW,252,5.0,5.0,39,0.00,,,0.00,856,Wunderground v.1.15,2013-04-21 17:22:00,
2013-04-21 13:27:00,47.1,23.4,30.51,NW,321,5.0,9.0,39,0.00,,,0.00,851,Wunderground v.1.15,2013-04-21 17:27:00,
2013-04-21 13:32:00,47.5,23.7,30.51,West,269,5.0,5.0,39,0.00,,,0.00,856,Wunderground v.1.15,2013-04-21 17:32:00,
2013-04-21 13:38:00,47.8,24.0,30.52,WNW,293,4.0,7.0,39,0.00,,,0.00,923,Wunderground v.1.15,2013-04-21 17:38:00,
2013-04-21 13:43:00,47.9,24.1,30.52,WSW,250,4.0,6.0,39,0.00,,,0.00,837,Wunderground v.1.15,2013-04-21 17:43:00,
2013-04-21 13:49:00,48.0,22.9,30.52,NW,323,5.0,7.0,37,0.00,,,0.00,826,Wunderground v.1.15,2013-04-21 17:49:00,
2013-04-21 13:54:00,47.6,23.2,30.52,West,273,4.0,6.0,38,0.00,,,0.00,819,Wunderground v.1.15,2013-04-21 17:54:00,
2013-04-21 13:59:00,47.7,23.3,30.52,NNW,332,4.0,6.0,38,0.00,,,0.00,810,Wunderground v.1.15,2013-04-21 17:59:00,
2013-04-21 14:05:00,47.7,23.9,30.51,SW,234,4.0,6.0,39,0.00,,,0.00,803,Wunderground v.1.15,2013-04-21 18:05:00,
2013-04-21 14:10:00,48.3,24.5,30.51,WSW,257,4.0,7.0,39,0.00,,,0.00,795,Wunderground v.1.15,2013-04-21 18:10:00,
2013-04-21 14:15:00,48.9,24.4,30.51,SE,129,4.0,7.0,38,0.00,,,0.00,791,Wunderground v.1.15,2013-04-21 18:15:00,
2013-04-21 14:21:00,49.3,24.7,30.51,NW,308,4.0,4.0,38,0.00,,,0.00,784,Wunderground v.1.15,2013-04-21 18:21:00,
2013-04-21 14:26:00,50.1,26.7,30.51,NW,304,3.0,5.0,40,0.00,,,0.00,775,Wunderground v.1.15,2013-04-21 18:26:00,
2013-04-21 14:31:00,50.4,24.4,30.51,NNW,334,3.0,4.0,36,0.00,,,0.00,765,Wunderground v.1.15,2013-04-21 18:31:00,
2013-04-21 14:36:00,49.8,24.5,30.51,WNW,297,5.0,8.0,37,0.00,,,0.00,758,Wunderground v.1.15,2013-04-21 18:36:00,
2013-04-21 14:41:00,49.3,24.1,30.51,NNW,344,5.0,5.0,37,0.00,,,0.00,749,Wunderground v.1.15,2013-04-21 18:41:00,
2013-04-21 14:46:00,49.5,22.9,30.51,WNW,284,4.0,9.0,35,0.00,,,0.00,744,Wunderground v.1.15,2013-04-21 18:46:00,
2013-04-21 14:51:00,49.9,22.6,30.51,NE,37,4.0,9.0,34,0.00,,,0.00,738,Wunderground v.1.15,2013-04-21 18:51:00,
2013-04-21 14:56:00,49.8,23.2,30.52,NW,326,5.0,9.0,35,0.00,,,0.00,722,Wunderground v.1.15,2013-04-21 18:56:00,
2013-04-21 15:02:00,50.1,22.8,30.51,WSW,258,4.0,5.0,34,0.00,,,0.00,714,Wunderground v.1.15,2013-04-21 19:02:00,
2013-04-21 15:08:00,50.2,22.2,30.52,WSW,244,4.0,7.0,33,0.00,,,0.00,698,Wunderground v.1.15,2013-04-21 19:08:00,
2013-04-21 15:13:00,50.0,20.5,30.52,NNW,345,5.0,14.0,31,0.00,,,0.00,689,Wunderground v.1.15,2013-04-21 19:13:00,
2013-04-21 15:18:00,50.0,21.3,30.52,West,267,5.0,14.0,32,0.00,,,0.00,679,Wunderground v.1.15,2013-04-21 19:18:00,
2013-04-21 15:23:00,49.9,20.4,30.51,West,269,4.0,6.0,31,0.00,,,0.00,670,Wunderground v.1.15,2013-04-21 19:23:00,
2013-04-21 15:28:00,50.0,22.7,30.52,North,360,4.0,6.0,34,0.00,,,0.00,659,Wunderground v.1.15,2013-04-21 19:28:00,
2013-04-21 15:33:00,49.5,19.3,30.52,NNE,27,4.0,7.0,30,0.00,,,0.00,643,Wunderground v.1.15,2013-04-21 19:33:00,
2013-04-21 15:39:00,49.4,20.7,30.52,NNW,338,5.0,7.0,32,0.00,,,0.00,631,Wunderground v.1.15,2013-04-21 19:39:00,
2013-04-21 15:45:00,49.3,19.9,30.52,NE,55,5.0,8.0,31,0.00,,,0.00,615,Wunderground v.1.15,2013-04-21 19:45:00,
2013-04-21 15:50:00,49.7,20.2,30.52,North,355,4.0,8.0,31,0.00,,,0.00,598,Wunderground v.1.15,2013-04-21 19:50:00,
2013-04-21 15:55:00,49.4,18.4,30.52,North,355,5.0,8.0,29,0.00,,,0.00,603,Wunderground v.1.15,2013-04-21 19:55:00,
2013-04-21 16:00:00,49.4,20.0,30.52,WSW,245,5.0,5.0,31,0.00,,,0.00,582,Wunderground v.1.15,2013-04-21 20:00:00,
2013-04-21 16:05:00,50.0,18.1,30.52,North,360,4.0,8.0,28,0.00,,,0.00,566,Wunderground v.1.15,2013-04-21 20:05:00,
2013-04-21 16:11:00,49.9,18.0,30.52,North,5,5.0,11.0,28,0.00,,,0.00,550,Wunderground v.1.15,2013-04-21 20:11:00,
2013-04-21 16:16:00,49.3,19.1,30.52,WNW,287,6.0,11.0,30,0.00,,,0.00,534,Wunderground v.1.15,2013-04-21 20:16:00,
2013-04-21 16:21:00,50.1,20.6,30.52,NE,38,4.0,4.0,31,0.00,,,0.00,524,Wunderground v.1.15,2013-04-21 20:21:00,
2013-04-21 16:26:00,50.4,18.5,30.53,North,355,2.0,4.0,28,0.00,,,0.00,512,Wunderground v.1.15,2013-04-21 20:26:00,
2013-04-21 16:32:00,50.1,17.4,30.53,WNW,300,3.0,8.0,27,0.00,,,0.00,494,Wunderground v.1.15,2013-04-21 20:32:00,
2013-04-21 16:37:00,49.8,18.0,30.53,WNW,283,5.0,11.0,28,0.00,,,0.00,480,Wunderground v.1.15,2013-04-21 20:37:00,
2013-04-21 16:42:00,49.8,15.3,30.54,NE,39,6.0,13.0,25,0.00,,,0.00,468,Wunderground v.1.15,2013-04-21 20:42:00,
2013-04-21 16:47:00,49.5,16.9,30.54,NW,307,6.0,13.0,27,0.00,,,0.00,450,Wunderground v.1.15,2013-04-21 20:47:00,
2013-04-21 16:52:00,50.0,18.1,30.54,WNW,287,4.0,5.0,28,0.00,,,0.00,434,Wunderground v.1.15,2013-04-21 20:52:00,
2013-04-21 16:58:00,49.7,16.2,30.54,WNW,284,3.0,10.0,26,0.00,,,0.00,415,Wunderground v.1.15,2013-04-21 20:58:00,
2013-04-21 17:03:00,50.0,16.4,30.54,West,273,3.0,4.0,26,0.00,,,0.00,401,Wunderground v.1.15,2013-04-21 21:03:00,
2013-04-21 17:09:00,50.4,15.8,30.54,North,360,3.0,7.0,25,0.00,,,0.00,360,Wunderground v.1.15,2013-04-21 21:09:00,
2013-04-21 17:14:00,50.4,15.8,30.55,WNW,296,3.0,5.0,25,0.00,,,0.00,302,Wunderground v.1.15,2013-04-21 21:14:00,
2013-04-21 17:20:00,50.1,16.5,30.55,West,275,3.0,4.0,26,0.00,,,0.00,297,Wunderground v.1.15,2013-04-21 21:20:00,
2013-04-21 17:25:00,49.9,15.4,30.55,NNW,334,3.0,4.0,25,0.00,,,0.00,169,Wunderground v.1.15,2013-04-21 21:25:00,
2013-04-21 17:30:00,49.8,14.4,30.55,NNW,341,4.0,7.0,24,0.00,,,0.00,185,Wunderground v.1.15,2013-04-21 21:30:00,
2013-04-21 17:35:00,49.4,15.0,30.55,NNE,23,5.0,9.0,25,0.00,,,0.00,207,Wunderground v.1.15,2013-04-21 21:35:00,
2013-04-21 17:40:00,49.2,14.8,30.55,North,5,6.0,6.0,25,0.00,,,0.00,183,Wunderground v.1.15,2013-04-21 21:40:00,
2013-04-21 17:45:00,49.1,14.7,30.55,North,355,6.0,8.0,25,0.00,,,0.00,114,Wunderground v.1.15,2013-04-21 21:45:00,
2013-04-21 17:50:00,49.1,15.6,30.55,NNW,342,6.0,6.0,26,0.00,,,0.00,97,Wunderground v.1.15,2013-04-21 21:50:00,
2013-04-21 17:56:00,49.1,14.7,30.55,NW,319,5.0,6.0,25,0.00,,,0.00,90,Wunderground v.1.15,2013-04-21 21:56:00,
2013-04-21 18:01:00,49.2,14.8,30.56,North,360,4.0,4.0,25,0.00,,,0.00,98,Wunderground v.1.15,2013-04-21 22:01:00,
2013-04-21 18:06:00,49.1,14.7,30.56,NNW,340,4.0,9.0,25,0.00,,,0.00,107,Wunderground v.1.15,2013-04-21 22:06:00,
2013-04-21 18:11:00,49.0,14.7,30.56,NNW,336,4.0,4.0,25,0.00,,,0.00,107,Wunderground v.1.15,2013-04-21 22:11:00,
2013-04-21 18:16:00,48.8,14.5,30.56,NNW,344,6.0,7.0,25,0.00,,,0.00,83,Wunderground v.1.15,2013-04-21 22:16:00,
2013-04-21 18:21:00,48.6,15.2,30.56,NNW,342,6.0,6.0,26,0.00,,,0.00,113,Wunderground v.1.15,2013-04-21 22:21:00,
2013-04-21 18:27:00,48.7,15.3,30.57,NNW,340,4.0,7.0,26,0.00,,,0.00,113,Wunderground v.1.15,2013-04-21 22:27:00,
2013-04-21 18:33:00,48.6,16.1,30.57,NNW,331,3.0,6.0,27,0.00,,,0.00,77,Wunderground v.1.15,2013-04-21 22:33:00,
2013-04-21 18:38:00,48.4,15.9,30.57,WNW,294,3.0,6.0,27,0.00,,,0.00,54,Wunderground v.1.15,2013-04-21 22:38:00,
2013-04-21 18:44:00,48.2,15.7,30.57,NNW,328,3.0,6.0,27,0.00,,,0.00,63,Wunderground v.1.15,2013-04-21 22:44:00,
2013-04-21 18:49:00,48.0,15.6,30.58,NNW,345,4.0,9.0,27,0.00,,,0.00,40,Wunderground v.1.15,2013-04-21 22:49:00,
2013-04-21 18:54:00,47.8,15.4,30.58,North,5,4.0,6.0,27,0.00,,,0.00,35,Wunderground v.1.15,2013-04-21 22:54:00,
2013-04-21 19:00:00,47.6,14.3,30.58,NNW,333,5.0,5.0,26,0.00,,,0.00,23,Wunderground v.1.15,2013-04-21 23:00:00,
2013-04-21 19:06:00,47.3,15.0,30.58,NNE,14,4.0,7.0,27,0.00,,,0.00,19,Wunderground v.1.15,2013-04-21 23:06:00,
2013-04-21 19:12:00,47.1,14.8,30.59,NW,325,4.0,5.0,27,0.00,,,0.00,14,Wunderground v.1.15,2013-04-21 23:12:00,
2013-04-21 19:18:00,46.9,14.6,30.59,North,360,3.0,5.0,27,0.00,,,0.00,11,Wunderground v.1.15,2013-04-21 23:18:00,
2013-04-21 19:24:00,46.6,15.2,30.60,NNE,19,2.0,3.0,28,0.00,,,0.00,7,Wunderground v.1.15,2013-04-21 23:24:00,
2013-04-21 19:30:00,46.2,15.6,30.60,North,355,2.0,2.0,29,0.00,,,0.00,5,Wunderground v.1.15,2013-04-21 23:30:00,
2013-04-21 19:35:00,45.9,15.4,30.61,North,360,1.0,2.0,29,0.00,,,0.00,0,Wunderground v.1.15,2013-04-21 23:35:00,
2013-04-21 19:41:00,45.7,16.0,30.61,NNW,348,1.0,1.0,30,0.00,,,0.00,0,Wunderground v.1.15,2013-04-21 23:41:00,
2013-04-21 19:46:00,45.5,15.8,30.61,NNW,348,0.0,1.0,30,0.00,,,0.00,0,Wunderground v.1.15,2013-04-21 23:46:00,
2013-04-21 19:51:00,45.2,15.6,30.62,NNW,348,0.0,0.0,30,0.00,,,0.00,0,Wunderground v.1.15,2013-04-21 23:51:00,
2013-04-21 19:57:00,44.7,17.3,30.62,NNW,348,0.0,0.0,33,0.00,,,0.00,0,Wunderground v.1.15,2013-04-21 23:57:00,
2013-04-21 20:02:00,44.5,18.5,30.63,NNW,348,0.0,0.0,35,0.00,,,0.00,0,Wunderground v.1.15,2013-04-22 00:02:00,
2013-04-21 20:07:00,44.2,20.2,30.63,NNW,348,0.0,0.0,38,0.00,,,0.00,0,Wunderground v.1.15,2013-04-22 00:07:00,
2013-04-21 20:12:00,43.9,20.5,30.63,NNW,348,0.0,0.0,39,0.00,,,0.00,0,Wunderground v.1.15,2013-04-22 00:12:00,
2013-04-21 20:17:00,43.6,21.4,30.63,NNW,348,0.0,0.0,41,0.00,,,0.00,0,Wunderground v.1.15,2013-04-22 00:17:00,
2013-04-21 20:23:00,43.2,21.6,30.64,NNW,348,0.0,0.0,42,0.00,,,0.00,0,Wunderground v.1.15,2013-04-22 00:23:00,
2013-04-21 20:28:00,42.7,21.7,30.64,NNW,348,0.0,0.0,43,0.00,,,0.00,0,Wunderground v.1.15,2013-04-22 00:28:00,
2013-04-21 20:34:00,42.2,21.8,30.64,NNW,348,0.0,0.0,44,0.00,,,0.00,0,Wunderground v.1.15,2013-04-22 00:34:00,
2013-04-21 20:39:00,41.5,21.2,30.65,NNW,348,0.0,0.0,44,0.00,,,0.00,0,Wunderground v.1.15,2013-04-22 00:39:00,
2013-04-21 20:45:00,41.0,20.7,30.65,NNW,348,0.0,0.0,44,0.00,,,0.00,0,Wunderground v.1.15,2013-04-22 00:45:00,
2013-04-21 20:50:00,40.5,20.8,30.65,NNW,348,0.0,0.0,45,0.00,,,0.00,0,Wunderground v.1.15,2013-04-22 00:50:00,
2013-04-21 20:56:00,39.7,20.6,30.66,NNW,348,0.0,0.0,46,0.00,,,0.00,0,Wunderground v.1.15,2013-04-22 00:56:00,
2013-04-21 21:01:00,39.1,20.5,30.66,NNW,348,0.0,0.0,47,0.00,,,0.00,0,Wunderground v.1.15,2013-04-22 01:01:00,
2013-04-21 21:07:00,38.7,20.7,30.66,NNW,348,0.0,1.0,48,0.00,,,0.00,0,Wunderground v.1.15,2013-04-22 01:07:00,
2013-04-21 21:12:00,38.4,20.9,30.66,NNW,348,0.0,0.0,49,0.00,,,0.00,0,Wunderground v.1.15,2013-04-22 01:12:00,
2013-04-21 21:17:00,38.2,22.1,30.66,NNW,348,0.0,0.0,52,0.00,,,0.00,0,Wunderground v.1.15,2013-04-22 01:17:00,
2013-04-21 21:22:00,37.6,22.4,30.66,NNW,348,0.0,0.0,54,0.00,,,0.00,0,Wunderground v.1.15,2013-04-22 01:22:00,
2013-04-21 21:28:00,37.2,22.5,30.66,NNW,348,0.0,1.0,55,0.00,,,0.00,0,Wunderground v.1.15,2013-04-22 01:28:00,
2013-04-21 21:34:00,36.8,23.0,30.67,NNW,348,0.0,0.0,57,0.00,,,0.00,0,Wunderground v.1.15,2013-04-22 01:34:00,
2013-04-21 21:40:00,36.4,23.4,30.67,NNW,348,0.0,0.0,59,0.00,,,0.00,0,Wunderground v.1.15,2013-04-22 01:40:00,
2013-04-21 21:46:00,36.1,23.1,30.67,NNW,348,0.0,0.0,59,0.00,,,0.00,0,Wunderground v.1.15,2013-04-22 01:46:00,
2013-04-21 21:51:00,35.8,23.3,30.67,NNW,348,0.0,0.0,60,0.00,,,0.00,0,Wunderground v.1.15,2013-04-22 01:51:00,
2013-04-21 21:56:00,35.4,23.3,30.67,NNW,348,0.0,0.0,61,0.00,,,0.00,0,Wunderground v.1.15,2013-04-22 01:56:00,
2013-04-21 22:02:00,35.0,23.3,30.68,NNW,348,0.0,0.0,62,0.00,,,0.00,0,Wunderground v.1.15,2013-04-22 02:02:00,
2013-04-21 22:07:00,34.7,23.0,30.68,NNW,348,0.0,1.0,62,0.00,,,0.00,0,Wunderground v.1.15,2013-04-22 02:07:00,
2013-04-21 22:13:00,34.2,23.3,30.68,NNW,348,0.0,0.0,64,0.00,,,0.00,0,Wunderground v.1.15,2013-04-22 02:13:00,
2013-04-21 22:18:00,33.9,22.6,30.68,NNW,348,0.0,1.0,63,0.00,,,0.00,0,Wunderground v.1.15,2013-04-22 02:18:00,
2013-04-21 22:23:00,33.5,22.6,30.69,North,350,1.0,1.0,64,0.00,,,0.00,0,Wunderground v.1.15,2013-04-22 02:23:00,
2013-04-21 22:29:00,33.2,22.7,30.69,North,350,0.0,1.0,65,0.00,,,0.00,0,Wunderground v.1.15,2013-04-22 02:29:00,
2013-04-21 22:34:00,33.0,22.5,30.69,North,350,0.0,0.0,65,0.00,,,0.00,0,Wunderground v.1.15,2013-04-22 02:34:00,
2013-04-21 22:39:00,32.9,22.8,30.69,North,350,0.0,0.0,66,0.00,,,0.00,0,Wunderground v.1.15,2013-04-22 02:39:00,
2013-04-21 22:44:00,32.7,22.9,30.69,North,350,0.0,1.0,67,0.00,,,0.00,0,Wunderground v.1.15,2013-04-22 02:44:00,
2013-04-21 22:50:00,32.6,22.8,30.69,North,350,0.0,1.0,67,0.00,,,0.00,0,Wunderground v.1.15,2013-04-22 02:50:00,
2013-04-21 22:55:00,32.5,23.1,30.69,North,350,0.0,1.0,68,0.00,,,0.00,0,Wunderground v.1.15,2013-04-22 02:55:00,
2013-04-21 23:01:00,32.3,22.9,30.69,North,350,0.0,0.0,68,0.00,,,0.00,0,Wunderground v.1.15,2013-04-22 03:01:00,
2013-04-21 23:07:00,32.2,22.8,30.70,North,350,0.0,0.0,68,0.00,,,0.00,0,Wunderground v.1.15,2013-04-22 03:07:00,
2013-04-21 23:13:00,31.9,22.5,30.70,North,350,0.0,1.0,68,0.00,,,0.00,0,Wunderground v.1.15,2013-04-22 03:13:00,
2013-04-21 23:18:00,31.8,22.8,30.70,North,350,0.0,1.0,69,0.00,,,0.00,0,Wunderground v.1.15,2013-04-22 03:18:00,
2013-04-21 23:23:00,31.7,22.3,30.70,North,350,1.0,2.0,68,0.00,,,0.00,0,Wunderground v.1.15,2013-04-22 03:23:00,
2013-04-21 23:28:00,31.7,22.7,30.70,North,350,1.0,2.0,69,0.00,,,0.00,0,Wunderground v.1.15,2013-04-22 03:28:00,
2013-04-21 23:33:00,31.6,22.6,30.70,North,350,0.0,1.0,69,0.00,,,0.00,0,Wunderground v.1.15,2013-04-22 03:33:00,
2013-04-21 23:39:00,31.4,22.1,30.70,North,350,0.0,1.0,68,0.00,,,0.00,0,Wunderground v.1.15,2013-04-22 03:39:00,
2013-04-21 23:44:00,31.1,22.1,30.70,North,350,0.0,1.0,69,0.00,,,0.00,0,Wunderground v.1.15,2013-04-22 03:44:00,
2013-04-21 23:50:00,30.9,22.3,30.70,North,350,1.0,1.0,70,0.00,,,0.00,0,Wunderground v.1.15,2013-04-22 03:50:00,
2013-04-21 23:56:00,30.8,22.5,30.71,North,350,1.0,1.0,71,0.00,,,0.00,0,Wunderground v.1.15,2013-04-22 03:56:00,